Location: Frankfurt+am+Main
(50.1100°N, 8.4815°E)
Time: 16:10:36
(UTC+01:00)

OTV 5 (USA 277) - Visible Passes

Search period start: 22 February 2018 00:00
Search period end: 04 March 2018 00:00
Orbit: 404 x 417 km, 43.0° (Epoch: 07 September)

Date Brightness Start Highest point End Pass type
(mag) Time Alt. Az. Time Alt. Az. Time Alt. Az.
22 Feb ? 06:43:09 10° SSW 06:45:25 17° SSE 06:47:42 10° ESE visible
23 Feb ? 05:52:40 10° SSW 05:54:33 14° SSE 05:56:26 10° SE visible
24 Feb ? 05:03:43 11° SSE 05:03:43 11° SSE 05:04:52 10° SE visible
24 Feb ? 06:37:39 10° SW 06:40:17 22° S 06:42:55 10° ESE visible
25 Feb ? 05:47:48 15° SSW 05:49:22 20° SSE 05:51:52 10° ESE visible
26 Feb ? 04:59:06 17° SSE 04:59:06 17° SSE 05:00:45 10° ESE visible
26 Feb ? 06:32:28 10° WSW 06:35:11 23° S 06:37:53 10° SE visible
27 Feb ? 05:43:07 19° SSW 05:44:15 23° S 05:46:57 10° ESE visible
28 Feb ? 04:54:23 19° SE 04:54:23 19° SE 04:55:58 10° ESE visible
28 Feb ? 06:27:31 10° WSW 06:30:03 21° S 06:32:36 10° SE visible
01 Mar ? 05:38:23 21° SSW 05:39:09 22° S 05:41:48 10° SE visible
02 Mar ? 04:49:40 18° SE 04:49:40 18° SE 04:50:56 10° SE visible
02 Mar ? 06:22:54 10° WSW 06:24:53 15° SSW 06:26:52 10° SSE visible
03 Mar ? 05:33:44 18° SSW 05:34:00 18° SSW 05:36:19 10° SSE visible
